Location: *
(49.5667°N, 1.3667°W)
Time: 08:51:57
(UTC+00:00)

Cosmos 1741 Rocket - Pass Details

Date: 20 September 2019
Orbit: 761 x 783 km, 74.0° (Epoch: 14 October)

Event Time Altitude Azimuth Distance (km) Brightness Sun altitude
Rises 20:32:46 0° 336° (NNW) 3,284 8.1 -23.0°
Reaches altitude 10° 20:35:11 10° 338° (NNW) 2,352 7.2 -23.3°
Maximum altitude 20:40:32 79° 65° (ENE) 804 3.9 -24.1°
Enters shadow 20:41:14 67° 128° (SE) 852 3.9 -24.2°
